Location: La M�reune
(46.1625°N, 7.0661°E)
Time: 01:34:22
(UTC+00:00)

Daily predictions for brighter satellites

Satellite Brightness Start Highest point End
(mag) Time Altitude Azimuth Time Altitude Azimuth Time Altitude Azimuth
Cosmos 2344 4.2 02:53:31 47° E 02:53:31 47° E 02:59:34 10° NE
USA 215 3.9 03:19:47 10° E 03:25:43 48° NNE 03:25:43 48° NNE
Cosmos 2369 Rocket 4.3 03:33:11 10° SSE 03:37:32 24° ESE 03:41:53 10° NE
NOSS 3-3 (A) 4.4 03:44:28 71° NNW 03:45:26 84° NE 03:53:57 10° SE
NOSS 3-3 (C) 4.5 03:44:32 71° NNW 03:45:32 83° NE 03:54:02 10° SE
Cosmos 1867 4.3 03:50:15 47° SE 03:50:15 47° SE 03:54:06 10° SE
Tsikada Rocket 4.4 03:46:10 10° S 03:52:13 59° E 03:58:23 10° NNE
Gblst 52 Del rocket 4.4 03:54:35 78° ENE 03:54:35 78° ENE 04:00:46 10° ENE
Cosmos 1943 Rocket 2.1 04:06:39 84° ENE 04:06:39 84° ENE 04:12:12 10° NNE
CZ-2C R/B 3.6 04:03:30 10° SE 04:08:43 47° ENE 04:13:24 12° N
SL-19 R/B 4.4 04:05:24 10° SSE 04:10:57 71° ENE 04:13:20 35° N
Cosmos 1241 Rocket 4.3 04:10:32 75° NW 04:11:06 87° SW 04:17:17 10° SSE
SL-8 R/B 4.0 04:16:23 62° NE 04:16:23 62° NE 04:20:38 10° E
CENTAUR R/B 2.3 04:16:08 68° WSW 04:16:54 77° NW 04:24:03 10° NE
Cosmos 2297 3.5 04:21:07 73° W 04:21:25 75° WNW 04:27:11 10° NNE
NOSS 3-2 (A) 3.4 04:27:50 55° NW 04:27:59 55° NW 04:34:27 10° NE
Cosmos 2278 Rocket 4.1 04:33:50 15° N 04:33:50 15° N 04:35:21 10° N
NOSS 3-2 (C) 3.2 04:33:35 46° SW 04:35:26 78° NW 04:41:57 10° NE
SKYMED 2 3.7 04:31:10 10° SSE 04:35:29 73° ENE 04:37:12 36° N
Envisat 3.2 04:30:47 10° NNE 04:35:52 71° ESE 04:40:56 10° S
Cosmos 2098 Rocket 3.3 04:37:45 10° S 04:41:31 64° E 04:46:19 10° NNE
Meteor 2-3 Rocket 3.7 04:36:34 10° SSW 04:42:09 61° WNW 04:47:51 10° N
Landsat 5 3.8 04:40:38 10° SSE 04:45:07 72° ENE 04:48:26 18° N
Cosmos 968 Rocket 3.3 04:42:38 26° SW 04:45:31 70° WNW 04:50:40 10° NNE
Meteor 2-13 Rocket 4.3 04:40:28 10° S 04:46:35 83° W 04:52:43 10° N
CZ-4B R/B 4.2 04:43:55 10° NNE 04:48:23 75° ESE 04:52:51 10° S
Genesis I 3.6 04:49:24 49° SW 04:49:24 49° SW 04:52:55 10° SSE
Cosmos 921 Rocket 2.9 04:50:35 55° NW 04:51:19 66° WSW 04:55:44 10° S
Okean 3 Rocket 4.1 04:48:40 10° S 04:53:08 63° E 04:57:39 10° NNE
DNEPR-1 R/B 4.0 04:53:15 31° NNW 04:55:33 75° NE 05:01:11 10° SE
H-2A R/B 3.9 04:52:11 10° SE 04:55:54 30° ENE 04:59:42 10° N
Meteor 1-26 Rocket 4.4 04:53:51 23° NNW 04:57:19 49° W 05:02:50 10° SSW
Cosmos 1812 2.5 04:56:58 53° NW 04:57:43 70° W 05:01:32 10° S
CBERS 1 LM4 rocket 4.3 04:54:14 10° NNE 04:59:05 88° WNW 05:04:06 10° SSW
ADEOS 4.1 04:54:13 10° NNE 04:59:24 60° ESE 05:04:33 10° S
USA 238 DEB 3.7 05:00:10 27° WSW 05:03:40 53° NW 05:10:26 10° NE
USA 238 3.7 05:00:14 27° WSW 05:03:46 54° NW 05:10:33 10° NE
Cosmos 2142 Rocket 4.4 04:58:05 10° N 05:04:27 82° W 05:10:49 10° S
Cosmos 1151 Rocket 2.9 05:01:35 20° NNW 05:04:36 70° W 05:08:56 10° S
Cosmos 1766 Rocket 3.4 05:01:59 10° S 05:06:20 85° W 05:10:41 10° N
Cosmos 2344 4.0 05:03:34 28° W 05:06:50 41° NNW 05:14:30 10° NE
Cosmos 2263 4.2 05:01:33 10° SSW 05:07:15 86° ESE 05:13:01 10° NNE
CZ-2C R/B 4.0 05:02:40 10° NNE 05:07:22 47° E 05:12:13 10° S
USA 215 3.2 05:02:15 10° SE 05:08:47 76° SW 05:13:03 24° WNW
Meteor 1-31 Rocket 2.7 05:10:27 10° N 05:14:16 57° WNW 05:18:06 10° SSW
Cosmos 1782 4.3 05:15:55 20° SW 05:15:55 20° SW 05:17:37 10° SSW
Cosmos 2279 Rocket 3.9 05:09:01 10° NNW 05:15:12 72° W 05:21:21 10° S
Cosmos 2297 Rocket 4.5 05:12:01 10° N 05:15:38 17° NE 05:19:15 10° E
IRAS Rocket 4.3 05:11:44 10° SSE 05:17:15 82° ENE 05:22:46 10° NNW
Cosmos 1328 Rocket 3.4 05:12:52 10° NNW 05:17:16 73° W 05:21:36 10° S
BREEZE-M DEB (TANK) 4.3 05:04:08 10° SW 05:17:37 54° SSE 05:21:22 10° ENE
SJ-12 4.4 05:15:47 10° N 05:19:38 38° WNW 05:23:29 10° SW
Cosmos 2369 Rocket 2.2 05:15:38 10° SW 05:21:07 57° WNW 05:26:39 10° NNE
FALCON 9 DEB 3.7 05:21:07 35° NW 05:21:44 38° NNW 05:24:56 10° NE
Cosmos 1862 3.3 05:18:47 10° SSW 05:22:39 56° WNW 05:26:33 10° N
COSMO-SKYMED 1 3.1 05:19:39 10° SSW 05:23:39 35° W 05:25:48 22° NW
Nadezhda 4 Rocket 4.4 05:19:39 10° S 05:25:43 67° E 05:31:55 10° NNE
H-2A R/B 3.5 05:24:22 10° N 05:27:36 28° WNW 05:30:50 10° SW
Cosmos 1634 Rocket 4.5 05:24:24 10° NNW 05:30:03 36° W 05:35:38 10° SSW
H-2A R/B 4.4 05:30:14 10° NE 05:34:15 25° E 05:38:16 10° SSE
Meteor 2-15 Rocket 4.5 05:28:49 10° N 05:34:57 86° E 05:41:01 10° S
CZ-4B R/B 2.6 05:33:29 10° NNE 05:37:05 84° ESE 05:40:39 10° SSW
CZ-4B R/B 2.9 05:36:30 10° SE 05:39:35 36° ENE 05:42:39 10° N
Cosmos 1408 Rocket 3.4 05:37:25 10° SSW 05:41:43 76° W 05:46:02 10° N
Cosmos 783 Rocket 4.4 05:38:19 10° NNW 05:43:33 77° WSW 05:48:43 10° SSE
CZ-4C R/B 3.8 05:41:55 10° SSW 05:44:38 26° W 05:46:01 19° WNW
Cosmos 1656 Rocket 3.7 05:39:34 10° SW 05:44:49 50° WNW 05:50:08 10° NNE
DMSP B5D2-2 4.1 05:39:48 10° S 05:44:58 65° WSW 05:50:10 10° NNW
Cosmos 1503 Rocket 4.0 05:39:57 10° SW 05:45:09 61° WNW 05:50:28 10° NNE
Cosmos 1743 Rocket 3.9 05:44:41 10° S 05:49:03 69° E 05:53:25 10° NNE
CZ-2C R/B 3.6 05:44:36 10° SSW 05:49:11 27° W 05:53:44 10° NW
Cosmos 1943 Rocket 3.5 05:48:15 15° W 05:51:01 20° NW 05:55:06 10° N
Cosmos 2227 Rocket 4.2 05:46:57 10° N 05:51:11 21° NE 05:55:23 10° E
FAST Rocket 4.2 05:48:43 10° S 05:51:17 70° E 05:54:15 10° NNE
Cosmos 1777 Rocket 4.1 05:51:38 10° SSW 05:56:51 82° ESE 06:02:07 10° NNE
Cosmos 1515 Rocket 3.7 05:53:19 10° NNW 05:57:33 49° W 06:01:44 10° SSW
FALCON 9 DEB 4.4 05:56:51 14° NW 05:58:25 21° N 06:00:42 10° NE
SL-8 R/B 3.9 05:54:22 14° WNW 05:58:26 62° SSW 06:03:09 10° SE
Meteor 1-27 Rocket 3.7 05:55:01 10° NNW 06:00:37 68° W 06:06:19 10° S
Cosmos 1602 4.4 05:57:46 10° S 06:01:30 56° E 06:05:15 10° NNE
NOAA 6 4.2 05:57:30 10° NNE 06:02:39 79° ESE 06:07:45 10° S
COSMOS 2487 3.1 06:01:28 10° N 06:04:46 51° ENE 06:08:01 10° SE
FALCON 9 DEB 4.4 06:03:16 12° NW 06:05:07 20° N 06:07:20 10° NE
Cosmos 773 Rocket 4.1 06:00:02 10° NNW 06:05:09 56° WSW 06:10:12 10° S
SJ 16-02 1.3 06:02:01 10° SSW 06:06:24 87° WNW 06:10:48 10° NNE
FALCON 9 DEB 4.4 06:05:15 11° NW 06:07:13 20° N 06:09:27 10° NE
CENTAUR R/B 3.7 06:03:23 10° W 06:08:51 28° NNW 06:15:09 10° NNE
Alouette 2 Rocket 3.1 06:07:10 10° NNW 06:11:04 73° WSW 06:14:35 10° S
NOAA 12 4.2 06:08:35 10° N 06:13:44 56° WNW 06:18:51 10° SSW
Envisat 4.3 06:11:01 10° NNW 06:14:20 18° WNW 06:17:39 10° W
Cosmos 1340 Rocket 2.8 06:10:39 10° SSW 06:14:33 63° WNW 06:18:32 10° N
Cosmos 1500 Rocket 3.7 06:13:36 10° SSW 06:17:58 56° WNW 06:22:23 10° N
SL-27 R/B 3.1 06:15:01 10° NW 06:18:20 36° WSW 06:21:37 10° S
Cosmos 1939 Rocket 3.1 06:16:33 10° N 06:20:19 44° WNW 06:24:01 10° SW
FALCON 9 DEB 4.4 06:21:56 10° NW 06:24:12 20° N 06:26:27 10° NE
